Tracking 28790 objects as of 19-Apr-2024
HD Live streaming from Space Station
objects crossing your sky now

COSMOS 2198

Track COSMOS 2198 now!
10-day predictions
COSMOS 2198 is classified as:


NORAD ID: 22035
Int'l Code: 1992-042B
Perigee: 1,414.9 km
Apogee: 1,423.5 km
Inclination: 82.6 °
Period: 114.0 minutes
Semi major axis: 7790 km
RCS: 1.1839 m2 (large)
Launch date: July 13, 1992
Source: Commonwealth of Independent States (former USSR) (CIS)
Launch site: PLESETSK MISSILE AND SPACE COMPLEX (PKMTR)
Your satellite tracking list
Your tracking list is empty




NASA's NSSDC Master Catalog

Two Line Element Set (TLE):
1 22035U 92042B   24109.25932182  .00000040  00000-0  16138-3 0  9993
2 22035  82.6013  37.5749 0005536 316.5998  43.4657 12.62640206463729
Source of the keplerian elements: AFSPC